Time,TemperatureF,DewpointF,PressureIn,WindDirection,WindDirectionDegrees,WindSpeedMPH,WindSpeedGustMPH,Humidity,HourlyPrecipIn,Conditions,Clouds,dailyrainin,SolarRadiationWatts/m^2,SoftwareType,DateUTC
2013-05-23 00:03:00,43.0,41.0,-100.00,North,3,6.0,19.0,94,0.03,,,0.14,0.000000,,2013-05-23 04:03:00,
2013-05-23 00:33:00,41.0,39.0,-100.00,North,6,6.0,18.0,93,0.00,,,0.14,0.000000,,2013-05-23 04:33:00,
2013-05-23 00:43:00,41.0,39.0,-100.00,North,6,6.0,18.0,93,0.00,,,0.14,0.000000,,2013-05-23 04:43:00,
2013-05-23 00:52:00,41.0,39.0,-100.00,North,6,6.0,18.0,93,0.00,,,0.14,0.000000,,2013-05-23 04:52:00,
2013-05-23 01:02:00,41.0,39.0,-100.00,North,6,6.0,18.0,93,0.00,,,0.14,0.000000,,2013-05-23 05:02:00,
2013-05-23 01:11:00,41.0,39.0,-100.00,North,6,6.0,18.0,93,0.00,,,0.14,0.000000,,2013-05-23 05:11:00,
2013-05-23 01:12:00,40.0,38.0,-100.00,North,6,7.0,17.0,93,0.00,,,0.14,0.000000,,2013-05-23 05:12:00,
2013-05-23 01:32:00,40.0,38.0,-100.00,North,6,7.0,17.0,93,0.00,,,0.14,0.000000,,2013-05-23 05:32:00,
2013-05-23 01:43:00,40.0,38.0,-100.00,North,6,7.0,17.0,93,0.00,,,0.14,0.000000,,2013-05-23 05:43:00,
2013-05-23 01:52:00,40.0,38.0,-100.00,North,6,7.0,17.0,93,0.00,,,0.14,0.000000,,2013-05-23 05:52:00,
2013-05-23 02:02:00,40.0,38.0,-100.00,North,6,7.0,17.0,93,0.00,,,0.14,0.000000,,2013-05-23 06:02:00,
2013-05-23 02:32:00,39.0,37.0,-100.00,North,8,7.0,17.0,93,0.00,,,0.14,0.000000,,2013-05-23 06:32:00,
2013-05-23 02:42:00,39.0,37.0,-100.00,North,8,7.0,17.0,93,0.00,,,0.14,0.000000,,2013-05-23 06:42:00,
2013-05-23 02:52:00,39.0,37.0,-100.00,North,8,7.0,17.0,93,0.00,,,0.14,0.000000,,2013-05-23 06:52:00,
2013-05-23 03:02:00,39.0,37.0,-100.00,North,8,7.0,17.0,93,0.00,,,0.14,0.000000,,2013-05-23 07:02:00,
2013-05-23 03:11:00,39.0,37.0,-100.00,North,8,7.0,17.0,93,0.00,,,0.14,0.000000,,2013-05-23 07:11:00,
2013-05-23 03:32:00,38.0,36.0,-100.00,North,3,7.0,18.0,92,0.00,,,0.14,0.000000,,2013-05-23 07:32:00,
2013-05-23 03:42:00,38.0,36.0,-100.00,North,3,7.0,18.0,92,0.00,,,0.14,0.000000,,2013-05-23 07:42:00,
2013-05-23 03:59:00,38.0,36.0,-100.00,North,3,7.0,18.0,92,0.00,,,0.14,0.000000,,2013-05-23 07:59:00,
2013-05-23 04:11:00,38.0,36.0,-100.00,North,3,7.0,18.0,92,0.00,,,0.14,0.000000,,2013-05-23 08:11:00,
2013-05-23 04:32:00,38.0,35.0,-100.00,North,7,7.0,17.0,90,0.00,,,0.14,0.000000,,2013-05-23 08:32:00,
2013-05-23 04:42:00,38.0,35.0,-100.00,North,7,7.0,17.0,90,0.00,,,0.14,0.000000,,2013-05-23 08:42:00,
2013-05-23 04:52:00,38.0,35.0,-100.00,North,7,7.0,17.0,90,0.00,,,0.14,0.000000,,2013-05-23 08:52:00,
2013-05-23 05:01:00,38.0,35.0,-100.00,North,7,7.0,17.0,90,0.00,,,0.14,0.000000,,2013-05-23 09:01:00,
2013-05-23 05:11:00,38.0,35.0,-100.00,North,7,7.0,17.0,90,0.00,,,0.14,0.000000,,2013-05-23 09:11:00,
2013-05-23 05:12:00,37.0,33.0,-100.00,NNE,12,7.0,17.0,86,0.00,,,0.14,0.000000,,2013-05-23 09:12:00,
2013-05-23 05:33:00,37.0,33.0,-100.00,NNE,12,7.0,17.0,86,0.00,,,0.14,0.000000,,2013-05-23 09:33:00,
2013-05-23 05:42:00,37.0,33.0,-100.00,NNE,12,7.0,17.0,86,0.00,,,0.14,0.000000,,2013-05-23 09:42:00,
2013-05-23 05:53:00,37.0,33.0,-100.00,NNE,12,7.0,17.0,86,0.00,,,0.14,0.000000,,2013-05-23 09:53:00,
2013-05-23 06:02:00,37.0,33.0,-100.00,NNE,12,7.0,17.0,86,0.00,,,0.14,0.000000,,2013-05-23 10:02:00,
2013-05-23 06:32:00,36.0,32.0,-100.00,North,10,8.0,22.0,84,0.00,,,0.14,0.000000,,2013-05-23 10:32:00,
2013-05-23 06:42:00,36.0,32.0,-100.00,North,10,8.0,22.0,84,0.00,,,0.14,0.000000,,2013-05-23 10:42:00,
2013-05-23 06:52:00,36.0,32.0,-100.00,North,10,8.0,22.0,84,0.00,,,0.14,0.000000,,2013-05-23 10:52:00,
2013-05-23 07:02:00,36.0,32.0,-100.00,North,10,8.0,22.0,84,0.00,,,0.14,0.000000,,2013-05-23 11:02:00,
2013-05-23 07:11:00,36.0,32.0,-100.00,North,10,8.0,22.0,84,0.00,,,0.14,0.000000,,2013-05-23 11:11:00,
2013-05-23 07:32:00,35.0,31.0,-100.00,North,2,8.0,18.0,84,0.00,,,0.14,24.000000,,2013-05-23 11:32:00,
2013-05-23 07:42:00,35.0,31.0,-100.00,North,2,8.0,18.0,84,0.00,,,0.14,24.000000,,2013-05-23 11:42:00,
2013-05-23 07:52:00,35.0,31.0,-100.00,North,2,8.0,18.0,84,0.00,,,0.14,24.000000,,2013-05-23 11:52:00,
2013-05-23 08:01:00,35.0,31.0,-100.00,North,2,8.0,18.0,84,0.00,,,0.14,24.000000,,2013-05-23 12:01:00,
2013-05-23 08:11:00,35.0,31.0,-100.00,North,2,8.0,18.0,84,0.00,,,0.14,24.000000,,2013-05-23 12:11:00,
2013-05-23 08:32:00,36.0,31.0,-100.00,North,9,10.0,25.0,82,0.00,,,0.14,103.000000,,2013-05-23 12:32:00,
2013-05-23 08:42:00,36.0,31.0,-100.00,North,9,10.0,25.0,82,0.00,,,0.14,103.000000,,2013-05-23 12:42:00,
2013-05-23 08:52:00,36.0,31.0,-100.00,North,9,10.0,25.0,82,0.00,,,0.14,103.000000,,2013-05-23 12:52:00,
2013-05-23 09:01:00,36.0,31.0,-100.00,North,9,10.0,25.0,82,0.00,,,0.14,103.000000,,2013-05-23 13:01:00,
2013-05-23 09:11:00,36.0,31.0,-100.00,North,9,10.0,25.0,82,0.00,,,0.14,103.000000,,2013-05-23 13:11:00,
2013-05-23 09:32:00,37.0,30.0,-100.00,NNE,14,8.0,21.0,77,0.00,,,-99.99,180.000000,,2013-05-23 13:32:00,
2013-05-23 09:42:00,37.0,30.0,-100.00,NNE,14,8.0,21.0,77,0.00,,,-99.99,180.000000,,2013-05-23 13:42:00,
2013-05-23 09:52:00,37.0,30.0,-100.00,NNE,14,8.0,21.0,77,0.00,,,-99.99,180.000000,,2013-05-23 13:52:00,
2013-05-23 10:02:00,37.0,30.0,-100.00,NNE,14,8.0,21.0,77,0.00,,,-99.99,180.000000,,2013-05-23 14:02:00,
2013-05-23 10:11:00,37.0,30.0,-100.00,NNE,14,8.0,21.0,77,0.00,,,-99.99,180.000000,,2013-05-23 14:11:00,
2013-05-23 10:32:00,36.0,29.0,-100.00,North,360,10.0,23.0,77,0.00,,,0.14,210.000000,,2013-05-23 14:32:00,
2013-05-23 10:42:00,36.0,29.0,-100.00,North,360,10.0,23.0,77,0.00,,,0.14,210.000000,,2013-05-23 14:42:00,
2013-05-23 10:52:00,36.0,29.0,-100.00,North,360,10.0,23.0,77,0.00,,,0.14,210.000000,,2013-05-23 14:52:00,
2013-05-23 11:01:00,36.0,29.0,-100.00,North,360,10.0,23.0,77,0.00,,,0.14,210.000000,,2013-05-23 15:01:00,
2013-05-23 11:11:00,36.0,29.0,-100.00,North,360,10.0,23.0,77,0.00,,,0.14,210.000000,,2013-05-23 15:11:00,
2013-05-23 11:12:00,37.0,29.0,-100.00,North,4,8.0,22.0,74,0.00,,,0.14,277.000000,,2013-05-23 15:12:00,
2013-05-23 11:33:00,37.0,29.0,-100.00,North,4,8.0,22.0,74,0.00,,,0.14,277.000000,,2013-05-23 15:33:00,
2013-05-23 11:43:00,37.0,29.0,-100.00,North,4,8.0,22.0,74,0.00,,,0.14,277.000000,,2013-05-23 15:43:00,
2013-05-23 11:53:00,37.0,29.0,-100.00,North,4,8.0,22.0,74,0.00,,,0.14,277.000000,,2013-05-23 15:53:00,
2013-05-23 12:03:00,37.0,29.0,-100.00,North,4,8.0,22.0,74,0.00,,,0.14,277.000000,,2013-05-23 16:03:00,
2013-05-23 12:34:00,37.0,29.0,-100.00,North,353,10.0,24.0,72,0.00,,,0.14,378.000000,,2013-05-23 16:34:00,
2013-05-23 12:43:00,37.0,29.0,-100.00,North,353,10.0,24.0,72,0.00,,,0.14,378.000000,,2013-05-23 16:43:00,
2013-05-23 12:52:00,37.0,29.0,-100.00,North,353,10.0,24.0,72,0.00,,,0.14,378.000000,,2013-05-23 16:52:00,
2013-05-23 13:03:00,37.0,29.0,-100.00,North,353,10.0,24.0,72,0.00,,,0.14,378.000000,,2013-05-23 17:03:00,
2013-05-23 13:11:00,37.0,29.0,-100.00,North,353,10.0,24.0,72,0.00,,,0.14,378.000000,,2013-05-23 17:11:00,
2013-05-23 13:33:00,38.0,31.0,-100.00,North,0,9.0,26.0,75,0.00,,,0.14,521.000000,,2013-05-23 17:33:00,
2013-05-23 13:43:00,38.0,31.0,-100.00,North,0,9.0,26.0,75,0.00,,,0.14,521.000000,,2013-05-23 17:43:00,
2013-05-23 13:53:00,38.0,31.0,-100.00,North,0,9.0,26.0,75,0.00,,,0.14,521.000000,,2013-05-23 17:53:00,
2013-05-23 14:01:00,38.0,31.0,-100.00,North,0,9.0,26.0,75,0.00,,,0.14,521.000000,,2013-05-23 18:01:00,
2013-05-23 14:11:00,38.0,31.0,-100.00,North,0,9.0,26.0,75,0.00,,,0.14,521.000000,,2013-05-23 18:11:00,
2013-05-23 14:32:00,39.0,30.0,-100.00,North,7,10.0,22.0,70,0.00,,,0.14,608.000000,,2013-05-23 18:32:00,
2013-05-23 14:42:00,39.0,30.0,-100.00,North,7,10.0,22.0,70,0.00,,,0.14,608.000000,,2013-05-23 18:42:00,
2013-05-23 14:52:00,39.0,30.0,-100.00,North,7,10.0,22.0,70,0.00,,,0.14,608.000000,,2013-05-23 18:52:00,
2013-05-23 15:01:00,39.0,30.0,-100.00,North,7,10.0,22.0,70,0.00,,,0.14,608.000000,,2013-05-23 19:01:00,
2013-05-23 15:11:00,39.0,30.0,-100.00,North,7,10.0,22.0,70,0.00,,,0.14,608.000000,,2013-05-23 19:11:00,
2013-05-23 15:32:00,42.0,30.0,-100.00,NNE,15,9.0,22.0,62,0.00,,,0.14,749.000000,,2013-05-23 19:32:00,
2013-05-23 15:42:00,42.0,30.0,-100.00,NNE,15,9.0,22.0,62,0.00,,,0.14,749.000000,,2013-05-23 19:42:00,
2013-05-23 15:52:00,42.0,30.0,-100.00,NNE,15,9.0,22.0,62,0.00,,,0.14,749.000000,,2013-05-23 19:52:00,
2013-05-23 16:02:00,42.0,30.0,-100.00,NNE,15,9.0,22.0,62,0.00,,,0.14,749.000000,,2013-05-23 20:02:00,
2013-05-23 16:11:00,42.0,30.0,-100.00,NNE,15,9.0,22.0,62,0.00,,,0.14,749.000000,,2013-05-23 20:11:00,
2013-05-23 16:32:00,44.0,27.0,-100.00,North,353,12.0,20.0,51,0.00,,,0.14,949.000000,,2013-05-23 20:32:00,
2013-05-23 16:42:00,44.0,27.0,-100.00,North,353,12.0,20.0,51,0.00,,,0.14,949.000000,,2013-05-23 20:42:00,
2013-05-23 16:52:00,44.0,27.0,-100.00,North,353,12.0,20.0,51,0.00,,,0.14,949.000000,,2013-05-23 20:52:00,
2013-05-23 17:01:00,44.0,27.0,-100.00,North,353,12.0,20.0,51,0.00,,,0.14,949.000000,,2013-05-23 21:01:00,
2013-05-23 17:11:00,44.0,27.0,-100.00,North,353,12.0,20.0,51,0.00,,,0.14,949.000000,,2013-05-23 21:11:00,
2013-05-23 17:12:00,45.0,27.0,-100.00,North,360,10.0,24.0,49,0.00,,,0.14,815.000000,,2013-05-23 21:12:00,
2013-05-23 17:33:00,45.0,27.0,-100.00,North,360,10.0,24.0,49,0.00,,,0.14,815.000000,,2013-05-23 21:33:00,
2013-05-23 17:43:00,45.0,27.0,-100.00,North,360,10.0,24.0,49,0.00,,,0.14,815.000000,,2013-05-23 21:43:00,
2013-05-23 17:53:00,45.0,27.0,-100.00,North,360,10.0,24.0,49,0.00,,,0.14,815.000000,,2013-05-23 21:53:00,
2013-05-23 18:03:00,45.0,27.0,-100.00,North,360,10.0,24.0,49,0.00,,,0.14,815.000000,,2013-05-23 22:03:00,
2013-05-23 18:33:00,46.0,27.0,-100.00,North,359,9.0,21.0,47,0.00,,,-99.99,653.000000,,2013-05-23 22:33:00,
2013-05-23 18:42:00,46.0,27.0,-100.00,North,359,9.0,21.0,47,0.00,,,-99.99,653.000000,,2013-05-23 22:42:00,
2013-05-23 18:52:00,46.0,27.0,-100.00,North,359,9.0,21.0,47,0.00,,,-99.99,653.000000,,2013-05-23 22:52:00,
2013-05-23 19:01:00,46.0,27.0,-100.00,North,359,9.0,21.0,47,0.00,,,-99.99,653.000000,,2013-05-23 23:01:00,
2013-05-23 19:11:00,46.0,27.0,-100.00,North,359,9.0,21.0,47,0.00,,,-99.99,653.000000,,2013-05-23 23:11:00,
2013-05-23 19:12:00,47.0,27.0,-100.00,NNE,32,7.0,19.0,46,0.00,,,0.10,467.000000,,2013-05-23 23:12:00,
2013-05-23 19:32:00,47.0,27.0,-100.00,NNE,32,7.0,19.0,46,0.00,,,0.10,467.000000,,2013-05-23 23:32:00,
2013-05-23 19:42:00,47.0,27.0,-100.00,NNE,32,7.0,19.0,46,0.00,,,0.10,467.000000,,2013-05-23 23:42:00,
2013-05-23 19:52:00,47.0,27.0,-100.00,NNE,32,7.0,19.0,46,0.00,,,0.10,467.000000,,2013-05-23 23:52:00,
2013-05-23 20:01:00,47.0,27.0,-100.00,NNE,32,7.0,19.0,46,0.00,,,0.10,467.000000,,2013-05-24 00:01:00,
2013-05-23 20:12:00,46.0,27.0,-100.00,North,8,7.0,19.0,48,0.00,,,-99.99,269.000000,,2013-05-24 00:12:00,
2013-05-23 20:32:00,46.0,27.0,-100.00,North,8,7.0,19.0,48,0.00,,,-99.99,269.000000,,2013-05-24 00:32:00,
2013-05-23 20:42:00,46.0,27.0,-100.00,North,8,7.0,19.0,48,0.00,,,-99.99,269.000000,,2013-05-24 00:42:00,
2013-05-23 20:52:00,46.0,27.0,-100.00,North,8,7.0,19.0,48,0.00,,,-99.99,269.000000,,2013-05-24 00:52:00,
2013-05-23 21:01:00,46.0,27.0,-100.00,North,8,7.0,19.0,48,0.00,,,-99.99,269.000000,,2013-05-24 01:01:00,
2013-05-23 21:32:00,43.0,28.0,-100.00,North,353,4.0,16.0,54,0.00,,,0.03,86.000000,,2013-05-24 01:32:00,
2013-05-23 21:42:00,43.0,28.0,-100.00,North,353,4.0,16.0,54,0.00,,,0.03,86.000000,,2013-05-24 01:42:00,
2013-05-23 21:52:00,43.0,28.0,-100.00,North,353,4.0,16.0,54,0.00,,,0.03,86.000000,,2013-05-24 01:52:00,
2013-05-23 22:01:00,43.0,28.0,-100.00,North,353,4.0,16.0,54,0.00,,,0.03,86.000000,,2013-05-24 02:01:00,
2013-05-23 22:11:00,43.0,28.0,-100.00,North,353,4.0,16.0,54,0.00,,,0.03,86.000000,,2013-05-24 02:11:00,
2013-05-23 22:32:00,39.0,28.0,-100.00,NNW,335,4.0,10.0,65,0.00,,,0.03,3.000000,,2013-05-24 02:32:00,
2013-05-23 22:42:00,39.0,28.0,-100.00,NNW,335,4.0,10.0,65,0.00,,,0.03,3.000000,,2013-05-24 02:42:00,
2013-05-23 22:52:00,39.0,28.0,-100.00,NNW,335,4.0,10.0,65,0.00,,,0.03,3.000000,,2013-05-24 02:52:00,
2013-05-23 23:02:00,39.0,28.0,-100.00,NNW,335,4.0,10.0,65,0.00,,,0.03,3.000000,,2013-05-24 03:02:00,
2013-05-23 23:11:00,39.0,28.0,-100.00,NNW,335,4.0,10.0,65,0.00,,,0.03,3.000000,,2013-05-24 03:11:00,
2013-05-23 23:12:00,37.0,28.0,-100.00,NNW,328,4.0,6.0,71,0.00,,,0.00,0.000000,,2013-05-24 03:12:00,
2013-05-23 23:33:00,37.0,28.0,-100.00,NNW,328,4.0,6.0,71,0.00,,,0.00,0.000000,,2013-05-24 03:33:00,
2013-05-23 23:42:00,37.0,28.0,-100.00,NNW,328,4.0,6.0,71,0.00,,,0.00,0.000000,,2013-05-24 03:42:00,
2013-05-23 23:53:00,37.0,28.0,-100.00,NNW,328,4.0,6.0,71,0.00,,,0.00,0.000000,,2013-05-24 03:53:00,